EW4784 Weather Reports


Display with metric or nautical units.
time (UTC)temp
F
wind
direction
speed
MPH
gust
MPH
rain 1hr
in
rain 24hr
in
rain mn
in
humidity
%
barometer
mb
20260508080557 41 0 0.0 0.0 0.00 0.04 0.03 97
20260508080056 41 0 0.0 0.0 0.00 0.04 0.03 97
20260508075616 42 0 0.0 0.0 0.00 0.04 0.03 97
20260508075115 42 0 0.0 0.0 0.00 0.04 0.03 97
20260508074553 42 0 0.0 0.0 0.00 0.04 0.03 97
20260508074051 42 0 0.0 0.0 0.00 0.04 0.03 97
20260508073612 41 0 0.0 0.0 0.00 0.04 0.03 97
20260508073049 41 0 0.0 0.0 0.00 0.04 0.03 97
20260508072549 41 0 0.0 0.0 0.00 0.04 0.03 97
20260508072048 41 0 0.0 0.0 0.00 0.04 0.03 97
20260508071547 41 0 0.0 0.0 0.00 0.04 0.03 97
20260508071046 41 0 0.0 0.0 0.00 0.04 0.03 97
20260508070545 41 0 0.0 0.0 0.00 0.04 0.03 97
20260508070044 41 0 0.0 0.0 0.00 0.04 0.03 97
20260508065542 41 0 0.0 0.0 0.00 0.04 0.03 97
20260508065103 41 0 0.0 0.0 0.00 0.04 0.03 97
20260508064541 41 2 0.0 0.0 0.00 0.04 0.03 97
20260508064040 41 2 0.0 0.0 0.00 0.04 0.03 97
20260508063600 41 2 0.0 0.0 0.00 0.04 0.03 97
20260508063038 41 2 0.0 0.0 0.00 0.04 0.03 96
20260508062537 41 2 0.0 0.0 0.00 0.04 0.03 96
20260508062056 41 2 0.0 0.0 0.00 0.04 0.03 96
20260508061535 41 2 0.0 0.0 0.00 0.04 0.03 96
20260508061033 41 2 0.0 0.0 0.00 0.04 0.03 96
20260508060533 41 2 0.0 0.0 0.00 0.04 0.03 96
20260508060031 41 2 0.0 0.0 0.00 0.04 0.03 96
20260508055530 41 2 0.0 0.0 0.00 0.04 0.03 96
20260508055030 41 2 0.0 0.0 0.00 0.04 0.03 96
20260508054529 41 2 0.0 0.0 0.00 0.04 0.03 96
20260508054027 41 4 0.0 0.0 0.00 0.04 0.03 95
20260508053526 41 100 0.0 0.0 0.00 0.04 0.03 95
20260508053026 41 169 0.0 0.0 0.01 0.04 0.03 95
20260508052525 41 169 0.0 0.0 0.01 0.04 0.03 95
20260508052023 41 169 0.0 0.0 0.01 0.04 0.03 95
20260508051522 42 169 0.0 0.0 0.01 0.04 0.03 94
20260508051021 42 170 0.0 0.0 0.01 0.04 0.03 94
20260508050541 42 179 0.0 0.0 0.02 0.04 0.03 94
20260508050019 42 160 0.0 1.0 0.03 0.04 0.03 94
20260508045518 42 140 0.0 0.0 0.04 0.04 0.03 93
20260508045017 43 140 0.0 0.0 0.04 0.04 0.03 93
20260508044516 43 140 0.0 0.0 0.04 0.04 0.03 93
20260508044036 42 140 0.0 0.0 0.04 0.04 0.03 92
20260508043514 42 140 0.0 0.0 0.04 0.04 0.03 92
20260508043013 42 140 0.0 0.0 0.03 0.03 0.02 91
20260508042512 43 143 0.0 2.0 0.03 0.03 0.02 89
20260508042032 43 167 0.0 4.0 0.03 0.03 0.02 88
20260508041510 43 317 2.0 8.0 0.03 0.03 0.02 86
20260508041031 44 313 2.0 7.0 0.03 0.03 0.02 84
20260508040508 44 340 5.0 14.0 0.02 0.02 0.01 81
20260508040007 45 6 11.0 22.0 0.01 0.01 0.01 77
20260508035506 46 6 15.0 26.0 0.00 0.00 0.00 73
20260508035005 47 0 4.0 7.0 0.00 0.00 0.00 71
20260508034504 47 354 2.0 3.0 0.00 0.00 0.00 67
20260508034003 48 333 2.0 3.0 0.00 0.00 0.00 64
20260508033502 48 221 0.0 0.0 0.00 0.00 0.00 62
20260508033001 48 221 0.0 0.0 0.00 0.00 0.00 62
20260508032500 48 221 0.0 0.0 0.00 0.00 0.00 60
20260508032020 48 221 0.0 0.0 0.00 0.00 0.00 59
20260508031458 48 221 0.0 0.0 0.00 0.00 0.00 58
20260508030957 48 221 0.0 0.0 0.00 0.00 0.00 58
20260508030456 49 221 0.0 0.0 0.00 0.00 0.00 57
20260508030026 49 209 2.0 6.0 0.00 0.00 0.00 56
20260508025955 49 209 2.0 6.0 0.00 0.00 0.00 56
20260508025454 49 230 1.0 4.0 0.00 0.00 0.00 55
20260508024954 49 340 1.0 5.0 0.00 0.00 0.00 54
20260508024452 49 340 2.0 7.0 0.00 0.00 0.00 54
20260508023951 49 359 6.0 11.0 0.00 0.00 0.00 56
20260508023450 49 326 5.0 12.0 0.00 0.00 0.00 54
20260508022949 49 301 1.0 6.0 0.00 0.00 0.00 53
20260508022448 49 256 2.0 6.0 0.00 0.00 0.00 54
20260508021947 49 285 2.0 8.0 0.00 0.00 0.00 55
20260508021446 49 349 1.0 5.0 0.00 0.00 0.00 56
20260508020945 49 358 5.0 10.0 0.00 0.00 0.00 56
20260508020505 49 346 5.0 15.0 0.00 0.00 0.00 54
20260508015943 49 355 1.0 5.0 0.00 0.00 0.00 56
20260508015442 49 344 1.0 4.0 0.00 0.00 0.00 55
20260508014941 49 329 0.0 2.0 0.00 0.00 0.00 57
20260508014440 49 297 0.0 3.0 0.00 0.00 0.00 56
20260508013939 49 280 0.0 0.0 0.00 0.00 0.00 55
20260508013438 49 281 0.0 4.0 0.00 0.00 0.00 54
20260508012937 49 273 0.0 2.0 0.00 0.00 0.00 54
20260508012436 49 272 1.0 6.0 0.00 0.00 0.00 54
20260508011935 49 263 0.0 3.0 0.00 0.00 0.00 54
20260508011434 49 277 0.0 2.0 0.00 0.00 0.00 55
20260508010933 49 285 0.0 5.0 0.00 0.00 0.00 54
20260508010453 49 253 1.0 5.0 0.00 0.00 0.00 53
20260508005931 49 263 1.0 5.0 0.00 0.00 0.00 54
20260508005429 49 279 4.0 12.0 0.00 0.00 0.00 54
20260508004929 49 285 5.0 13.0 0.00 0.00 0.00 54
20260508004449 50 301 8.0 17.0 0.00 0.00 0.00 52
20260508003927 51 281 8.0 23.0 0.00 0.00 0.00 46
20260508003426 51 311 7.0 16.0 0.00 0.00 0.00 46
20260508002925 51 320 5.0 12.0 0.00 0.00 0.00 48
20260508002424 51 346 6.0 19.0 0.00 0.00 0.00 47
20260508001944 52 350 3.0 8.0 0.00 0.00 0.00 47
20260508001422 52 357 5.0 12.0 0.00 0.00 0.00 46
20260508000920 52 340 7.0 17.0 0.00 0.00 0.00 45
20260508000420 52 344 6.0 13.0 0.00 0.00 0.00 46
20260507235918 52 309 9.0 22.0 0.00 0.00 0.00 45
20260507235418 52 328 9.0 24.0 0.00 0.00 0.00 42
20260507234917 52 308 13.0 25.0 0.00 0.00 0.00 43
20260507234416 53 318 9.0 22.0 0.00 0.00 0.00 43
20260507233935 53 327 8.0 22.0 0.00 0.00 0.00 43
20260507233435 53 303 10.0 24.0 0.00 0.00 0.00 42
20260507232912 53 314 12.0 26.0 0.00 0.00 0.00 43
20260507232433 53 309 9.0 24.0 0.00 0.00 0.00 42
20260507231911 53 305 8.0 17.0 0.00 0.00 0.00 42
20260507231410 53 307 9.0 21.0 0.00 0.00 0.00 41
20260507230909 53 311 13.0 27.0 0.00 0.00 0.00 42
20260507230407 54 314 13.0 22.0 0.00 0.00 0.00 40
20260507225907 55 315 15.0 30.0 0.00 0.00 0.00 39
20260507225405 57 334 14.0 26.0 0.00 0.00 0.00 38
20260507224904 57 319 11.0 28.0 0.00 0.00 0.00 38
20260507224404 56 307 13.0 22.0 0.00 0.00 0.00 39
20260507223902 56 313 11.0 20.0 0.00 0.00 0.00 41
20260507223402 56 346 9.0 19.0 0.00 0.00 0.00 40
20260507222901 58 324 12.0 24.0 0.00 0.00 0.00 38
20260507222359 56 313 17.0 37.0 0.00 0.00 0.00 38
20260507221858 55 317 15.0 36.0 0.00 0.00 0.00 42
20260507221419 55 325 8.0 25.0 0.00 0.00 0.00 41
20260507220918 54 309 16.0 32.0 0.00 0.00 0.00 40
20260507220355 56 331 17.0 36.0 0.00 0.00 0.00 40
20260507215915 58 338 14.0 28.0 0.00 0.00 0.00 38
20260507215353 56 322 20.0 35.0 0.00 0.00 0.00 40
20260507214852 56 311 17.0 33.0 0.00 0.00 0.00 38
20260507214351 57 306 17.0 35.0 0.00 0.00 0.00 37
20260507213911 57 307 12.0 27.0 0.00 0.00 0.00 37
20260507213349 57 305 10.0 23.0 0.00 0.00 0.00 38
20260507212848 55 311 13.0 27.0 0.00 0.00 0.00 39
20260507212347 55 313 18.0 32.0 0.00 0.00 0.00 39
20260507211847 56 346 13.0 27.0 0.00 0.00 0.00 40
20260507211345 56 318 15.0 29.0 0.00 0.00 0.00 39
20260507210844 55 309 15.0 28.0 0.00 0.00 0.00 39
20260507210343 55 311 15.0 30.0 0.00 0.00 0.00 38
20260507205842 56 310 12.0 25.0 0.00 0.00 0.00 39
20260507205342 56 326 13.0 31.0 0.00 0.00 0.00 40
20260507204840 56 318 14.0 31.0 0.00 0.00 0.00 39
20260507204339 56 324 12.0 32.0 0.00 0.00 0.00 40
20260507203839 55 341 15.0 28.0 0.00 0.00 0.00 41
20260507203337 54 307 14.0 29.0 0.00 0.00 0.00 40
20260507202836 55 341 13.0 28.0 0.00 0.00 0.00 42
20260507202335 55 320 12.0 29.0 0.00 0.00 0.00 40
20260507201834 55 319 12.0 24.0 0.00 0.00 0.00 41
20260507201333 54 349 14.0 32.0 0.00 0.00 0.00 41
20260507200832 54 323 11.0 27.0 0.00 0.00 0.00 39
20260507200331 54 312 13.0 26.0 0.00 0.00 0.00 41
20260507195830 54 313 14.0 32.0 0.00 0.00 0.00 40
20260507195329 56 318 15.0 33.0 0.00 0.00 0.00 39
20260507194849 56 345 15.0 31.0 0.00 0.00 0.00 40
20260507194327 55 339 16.0 35.0 0.00 0.00 0.00 40
20260507193847 56 344 14.0 27.0 0.00 0.00 0.00 39
20260507193325 55 352 15.0 33.0 0.00 0.00 0.00 39
20260507192824 56 328 13.0 24.0 0.00 0.00 0.00 38
20260507192323 57 319 16.0 29.0 0.00 0.00 0.00 37
20260507191822 57 315 17.0 36.0 0.00 0.00 0.00 36
20260507191321 57 300 16.0 36.0 0.00 0.00 0.00 37
20260507190820 57 330 16.0 35.0 0.00 0.00 0.00 39
20260507190320 57 326 12.0 24.0 0.00 0.00 0.00 40
20260507185818 56 342 16.0 32.0 0.00 0.00 0.00 40
20260507185317 54 330 15.0 27.0 0.00 0.00 0.00 41
20260507184816 55 318 13.0 25.0 0.00 0.00 0.00 41
20260507184315 55 350 12.0 22.0 0.00 0.00 0.00 42
20260507183814 55 313 9.0 25.0 0.00 0.00 0.00 41
20260507183313 54 310 11.0 22.0 0.00 0.00 0.00 41
20260507182812 54 309 11.0 22.0 0.00 0.00 0.00 42
20260507182311 55 349 14.0 31.0 0.00 0.00 0.00 42
20260507181831 54 355 17.0 29.0 0.00 0.00 0.00 42
20260507181309 55 354 11.0 26.0 0.00 0.00 0.00 40
20260507180809 56 326 13.0 36.0 0.00 0.00 0.00 41
20260507180307 56 310 10.0 23.0 0.00 0.00 0.00 40
20260507175806 57 296 15.0 25.0 0.00 0.00 0.00 39
20260507175307 56 307 13.0 29.0 0.00 0.00 0.00 39
20260507174804 54 299 8.0 15.0 0.00 0.00 0.00 44
20260507174303 55 343 13.0 26.0 0.00 0.00 0.00 43
20260507173802 54 347 11.0 29.0 0.00 0.00 0.00 46
20260507173301 53 313 11.0 30.0 0.00 0.00 0.00 44
20260507172800 53 304 12.0 28.0 0.00 0.00 0.00 43
20260507172259 54 303 10.0 19.0 0.00 0.00 0.00 44
20260507171819 54 343 13.0 27.0 0.00 0.00 0.00 42
20260507171257 56 350 20.0 32.0 0.00 0.00 0.00 40
20260507170756 54 352 12.0 19.0 0.00 0.00 0.00 44
20260507170255 54 333 9.0 22.0 0.00 0.00 0.00 42
20260507165754 55 318 16.0 31.0 0.00 0.00 0.00 39
20260507165253 56 311 12.0 21.0 0.00 0.00 0.00 41
20260507164752 57 303 18.0 35.0 0.00 0.00 0.00 40
20260507164251 55 291 9.0 28.0 0.00 0.00 0.00 43
20260507163750 56 331 11.0 26.0 0.00 0.00 0.00 42
20260507163310 56 327 12.0 24.0 0.00 0.00 0.00 43
20260507162748 54 309 12.0 23.0 0.00 0.00 0.00 43
20260507162247 53 305 12.0 23.0 0.00 0.00 0.00 46
20260507161746 54 326 12.0 26.0 0.00 0.00 0.00 44
20260507161245 54 308 14.0 29.0 0.00 0.00 0.00 43
20260507160744 56 312 13.0 32.0 0.00 0.00 0.00 41
20260507160243 56 311 10.0 22.0 0.00 0.00 0.00 44
20260507155743 54 313 12.0 25.0 0.00 0.00 0.00 44
20260507155241 53 299 11.0 29.0 0.00 0.00 0.00 46
20260507154740 54 312 14.0 24.0 0.00 0.00 0.00 44
20260507154239 56 323 12.0 25.0 0.00 0.00 0.00 44
20260507153738 55 344 12.0 26.0 0.00 0.00 0.00 47
20260507153237 55 355 11.0 25.0 0.00 0.00 0.00 47
20260507152757 55 316 9.0 20.0 0.00 0.00 0.00 44
20260507152234 53 314 11.0 25.0 0.00 0.00 0.00 45
20260507151734 52 315 8.0 21.0 0.00 0.00 0.00 46
20260507151233 53 322 15.0 27.0 0.00 0.00 0.00 44
20260507150731 54 316 11.0 21.0 0.00 0.00 0.00 44
20260507150231 54 286 8.0 19.0 0.00 0.00 0.00 45
20260507145730 53 302 11.0 17.0 0.00 0.00 0.00 45
20260507145250 54 253 11.0 26.0 0.00 0.00 0.00 43
20260507144748 55 284 13.0 28.0 0.00 0.00 0.00 42
20260507144227 55 267 9.0 21.0 0.00 0.00 0.00 44
20260507143746 54 244 10.0 25.0 0.00 0.00 0.00 45
20260507143225 54 272 7.0 21.0 0.00 0.00 0.00 45
20260507142724 54 254 8.0 22.0 0.00 0.00 0.00 47
20260507142223 54 240 9.0 24.0 0.00 0.00 0.00 46
20260507141722 54 257 6.0 17.0 0.00 0.00 0.00 47
20260507141221 53 272 6.0 11.0 0.00 0.00 0.00 48
20260507140720 53 272 4.0 12.0 0.00 0.00 0.00 47
20260507140218 53 332 7.0 15.0 0.00 0.00 0.00 48
20260507135718 53 304 6.0 15.0 0.00 0.00 0.00 47
20260507135216 52 324 6.0 12.0 0.00 0.00 0.00 49
20260507134737 52 337 4.0 8.0 0.00 0.00 0.00 48
20260507134215 51 315 7.0 13.0 0.00 0.00 0.00 48
20260507133713 51 334 4.0 10.0 0.00 0.00 0.00 50
20260507133213 51 327 5.0 9.0 0.00 0.00 0.00 49
20260507132711 51 346 6.0 11.0 0.00 0.00 0.00 51
20260507132211 51 0 6.0 12.0 0.00 0.00 0.00 52
20260507131710 50 348 3.0 10.0 0.00 0.00 0.00 52
20260507131208 50 344 4.0 8.0 0.00 0.00 0.00 53
20260507130707 50 345 4.0 9.0 0.00 0.00 0.00 55
20260507130206 49 334 3.0 7.0 0.00 0.00 0.00 55
20260507125705 49 327 6.0 9.0 0.00 0.00 0.00 56
20260507125205 49 345 4.0 8.0 0.00 0.00 0.00 60
20260507124704 48 344 4.0 8.0 0.00 0.00 0.00 60
20260507124223 48 335 4.0 9.0 0.00 0.00 0.00 61
20260507123701 48 321 6.0 12.0 0.00 0.00 0.00 61
20260507123200 47 318 6.0 11.0 0.00 0.00 0.00 63
20260507122720 47 340 6.0 13.0 0.00 0.00 0.00 64
20260507122159 46 344 4.0 12.0 0.00 0.00 0.00 65
20260507121718 46 325 5.0 9.0 0.00 0.00 0.00 66
20260507121157 45 337 4.0 10.0 0.00 0.00 0.00 67
20260507120716 45 322 4.0 10.0 0.00 0.00 0.00 67
20260507120215 44 312 7.0 14.0 0.00 0.00 0.00 69
20260507115653 44 333 6.0 12.0 0.00 0.00 0.00 72
20260507115152 43 323 5.0 11.0 0.00 0.00 0.00 75
20260507114651 42 330 3.0 7.0 0.00 0.00 0.00 79
20260507114150 42 351 0.0 2.0 0.00 0.00 0.00 81
20260507113649 41 12 1.0 3.0 0.00 0.00 0.00 82
20260507113149 40 15 0.0 1.0 0.00 0.00 0.00 82
20260507112708 40 17 0.0 0.0 0.00 0.00 0.00 83
20260507112146 39 18 0.0 0.0 0.00 0.00 0.00 83
20260507111645 38 18 0.0 0.0 0.00 0.00 0.00 84
20260507111206 38 18 0.0 0.0 0.00 0.00 0.00 84
20260507110704 37 18 0.0 0.0 0.00 0.00 0.00 84
20260507110142 37 18 0.0 0.0 0.00 0.00 0.00 84
20260507105641 37 18 0.0 0.0 0.00 0.00 0.00 84
20260507105140 37 18 0.0 0.0 0.00 0.00 0.00 84
20260507104639 37 18 0.0 0.0 0.00 0.00 0.00 83
20260507104138 37 18 0.0 0.0 0.00 0.00 0.00 83
20260507103637 36 18 0.0 0.0 0.00 0.00 0.00 82
20260507103136 37 18 0.0 0.0 0.00 0.00 0.00 82
20260507102635 37 18 0.0 0.0 0.00 0.00 0.00 82
20260507102155 37 18 0.0 0.0 0.00 0.00 0.00 82
20260507101633 37 18 0.0 0.0 0.00 0.00 0.00 82
20260507101132 37 18 0.0 0.0 0.00 0.00 0.00 82
20260507100631 37 18 0.0 0.0 0.00 0.00 0.00 82
20260507100130 37 18 0.0 0.0 0.00 0.00 0.00 81
20260507095629 38 18 0.0 0.0 0.00 0.00 0.00 81
20260507095128 38 18 0.0 0.0 0.00 0.00 0.00 81
20260507094627 38 18 0.0 0.0 0.00 0.00 0.00 81
20260507094126 38 18 0.0 0.0 0.00 0.00 0.00 81
20260507093646 38 18 0.0 0.0 0.00 0.00 0.00 81
20260507093124 38 18 0.0 0.0 0.00 0.00 0.00 80
20260507092644 39 18 0.0 0.0 0.00 0.00 0.00 80
20260507092122 39 18 0.0 0.0 0.00 0.00 0.00 80
20260507091621 39 18 0.0 0.0 0.00 0.00 0.00 77
20260507091141 40 18 0.0 0.0 0.00 0.00 0.00 75
20260507090619 40 18 0.0 0.0 0.00 0.00 0.00 75
20260507090118 40 18 0.0 0.0 0.00 0.00 0.00 75
20260507085638 40 18 0.0 0.0 0.00 0.00 0.00 74
20260507085116 40 18 0.0 0.0 0.00 0.00 0.00 75
20260507084615 40 18 0.0 0.0 0.00 0.00 0.00 75
20260507084114 40 18 0.0 0.0 0.00 0.00 0.00 74
20260507083613 40 18 0.0 0.0 0.00 0.00 0.00 75
20260507083112 40 18 0.0 0.0 0.00 0.00 0.00 75
20260507082611 40 19 0.0 0.0 0.00 0.00 0.00 76
20260507082110 40 19 0.0 0.0 0.00 0.00 0.00 76
20260507081609 40 19 0.0 0.0 0.00 0.00 0.00 76
20260507081129 40 19 0.0 0.0 0.00 0.00 0.00 75